Weather History for Bentonville, AR

Change the Weather History Date:

Monday, January 30, 2012

  Actual Average Record
Temperature  
Mean Temperature 50 °F -  
Max Temperature 64 °F 47 °F 70 °F (1967)
Min Temperature 37 °F 24 °F -4 °F (1966)
Degree Days  
Heating Degree Days 14    
Moisture  
Dew Point 33 °F    
Average Humidity 50    
Maximum Humidity 61    
Minimum Humidity 42    
Precipitation  
Precipitation 0.00 in - - ()
Sea Level Pressure  
Sea Level Pressure 30.11 in    
Wind  
Wind Speed 9 mph (South)    
Max Wind Speed 18 mph    
Max Gust Speed 30 mph    
Visibility 10 miles    
Events      
Averages and records for this station are not official NWS values.
T = Trace of Precipitation, MM = Missing Value Source: NWS Daily Summary

Daily Weather History Graph

Daily Weather History Graph

Search for Another Location

Airport:

Trip Planner

Search our weather history database for the weather conditions in past years. The results will help you decide how hot, cold, wet, or windy it might be!

Date:

Astronomy

Jan. 30, 2012 Rise Set
Actual Time 7:20 AM CST 5:40 PM CST
Civil Twilight 6:52 AM CST 6:07 PM CST
Nautical Twilight 6:21 AM CST 6:38 PM CST
Astronomical Twilight 5:51 AM CST 7:09 PM CST
Moon 10:57 AM CST (1/30) 12:11 AM CST (1/30)
Length of Visible Light 11h 15m
Length of Day
10h 20m
Waxing Crescent, 46% of the Moon is Illuminated
Jan 30
Waxing Crescent
Jan 30
First Quarter
Feb 7
Full
Feb 14
Last Quarter
Feb 21
New

Hourly Weather History & Observations

Time (CST) Temp. Windchill Dew Point Humidity Pressure Visibility Wind Dir Wind Speed Gust Speed Precip Events Conditions
12:15 AM 42.8 °F 39.3 °F 23.0 °F 46% 30.20 in 10.0 mi South 5.8 mph - N/A   Clear
12:35 AM 42.8 °F 38.6 °F 23.0 °F 46% 30.20 in 10.0 mi South 6.9 mph - N/A   Clear
12:55 AM 42.8 °F 39.3 °F 23.0 °F 46% 30.20 in 10.0 mi South 5.8 mph - N/A   Clear
1:15 AM 42.8 °F 38.6 °F 23.0 °F 46% 30.19 in 10.0 mi South 6.9 mph - N/A   Clear
1:35 AM 42.8 °F 39.3 °F 23.0 °F 46% 30.19 in 10.0 mi South 5.8 mph - N/A   Clear
1:55 AM 42.8 °F 39.3 °F 24.8 °F 49% 30.19 in 10.0 mi South 5.8 mph - N/A   Clear
2:15 AM 42.8 °F 38.0 °F 24.8 °F 49% 30.18 in 10.0 mi South 8.1 mph - N/A   Clear
2:35 AM 39.2 °F 35.0 °F 23.0 °F 52% 30.18 in 10.0 mi South 5.8 mph - N/A   Clear
2:55 AM 39.2 °F 34.2 °F 23.0 °F 52% 30.17 in 10.0 mi South 6.9 mph - N/A   Clear
3:15 AM 39.2 °F 33.6 °F 24.8 °F 56% 30.17 in 10.0 mi South 8.1 mph - N/A   Clear
3:35 AM 42.8 °F 38.0 °F 24.8 °F 49% 30.16 in 10.0 mi South 8.1 mph - N/A   Clear
3:55 AM 42.8 °F 38.6 °F 24.8 °F 49% 30.16 in 10.0 mi South 6.9 mph - N/A   Clear
4:15 AM 41.0 °F 36.4 °F 24.8 °F 53% 30.16 in 10.0 mi South 6.9 mph - N/A   Clear
4:35 AM 39.2 °F 34.2 °F 24.8 °F 56% 30.15 in 10.0 mi South 6.9 mph - N/A   Clear
4:55 AM 39.2 °F 34.2 °F 24.8 °F 56% 30.15 in 10.0 mi South 6.9 mph - N/A   Clear
5:15 AM 39.2 °F 35.0 °F 24.8 °F 56% 30.15 in 10.0 mi South 5.8 mph - N/A   Clear
5:35 AM 37.4 °F 32.8 °F 24.8 °F 60% 30.15 in 10.0 mi South 5.8 mph - N/A   Clear
5:55 AM 37.4 °F 31.4 °F 24.8 °F 60% 30.15 in 10.0 mi South 8.1 mph - N/A   Clear
6:15 AM 39.2 °F 34.2 °F 24.8 °F 56% 30.15 in 10.0 mi South 6.9 mph - N/A   Clear
6:35 AM 39.2 °F 33.6 °F 26.6 °F 61% 30.15 in 10.0 mi South 8.1 mph - N/A   Clear
6:55 AM 39.2 °F 33.6 °F 26.6 °F 61% 30.15 in 10.0 mi South 8.1 mph - N/A   Clear
7:15 AM 39.2 °F 33.6 °F 26.6 °F 61% 30.15 in 10.0 mi SSE 8.1 mph - N/A   Clear
7:35 AM 39.2 °F 33.6 °F 26.6 °F 61% 30.14 in 10.0 mi South 8.1 mph - N/A   Clear
7:55 AM 41.0 °F 37.1 °F 26.6 °F 57% 30.15 in 10.0 mi South 5.8 mph - N/A   Clear
8:15 AM 44.6 °F 40.2 °F 28.4 °F 53% 30.15 in 10.0 mi South 8.1 mph - N/A   Clear
8:35 AM 46.4 °F 42.4 °F 28.4 °F 50% 30.15 in 10.0 mi South 8.1 mph - N/A   Clear
8:55 AM 48.2 °F - 28.4 °F 46% 30.15 in 10.0 mi South 11.5 mph 18.4 mph N/A   Clear
9:15 AM 50.0 °F - 30.2 °F 47% 30.15 in 10.0 mi SSW 10.4 mph - N/A   Clear
9:35 AM 51.8 °F - 30.2 °F 44% 30.15 in 10.0 mi SSW 10.4 mph - N/A   Clear
9:55 AM 53.6 °F - 32.0 °F 44% 30.15 in 10.0 mi SSW 11.5 mph 16.1 mph N/A   Clear
10:15 AM 55.4 °F - 33.8 °F 44% 30.15 in 10.0 mi SSW 12.7 mph 17.3 mph N/A   Clear
10:35 AM 55.4 °F - 33.8 °F 44% 30.15 in 10.0 mi SSW 12.7 mph 19.6 mph N/A   Clear
10:55 AM 57.2 °F - 35.6 °F 44% 30.15 in 10.0 mi SSW 15.0 mph 20.7 mph N/A   Clear
11:15 AM 57.2 °F - 35.6 °F 44% 30.14 in 10.0 mi SSW 11.5 mph - N/A   Clear
11:35 AM 59.0 °F - 37.4 °F 45% 30.13 in 10.0 mi South 11.5 mph - N/A   Clear
11:55 AM 59.0 °F - 37.4 °F 45% 30.13 in 10.0 mi SSW 13.8 mph 19.6 mph N/A   Clear
12:15 PM 60.8 °F - 37.4 °F 42% 30.11 in 9.0 mi SSW 10.4 mph 20.7 mph N/A   Clear
12:35 PM 60.8 °F - 37.4 °F 42% 30.10 in 10.0 mi South 16.1 mph 19.6 mph N/A   Clear
12:55 PM 60.8 °F - 39.2 °F 45% 30.09 in 10.0 mi SSW 13.8 mph 20.7 mph N/A   Clear
1:35 PM 62.6 °F - 39.2 °F 42% 30.07 in 10.0 mi SSW 16.1 mph 23.0 mph N/A   Clear
2:15 PM 62.6 °F - 42.8 °F 48% 30.04 in 10.0 mi SSW 16.1 mph 21.9 mph N/A   Clear
2:35 PM 64.4 °F - 41.0 °F 42% 30.04 in 10.0 mi SSW 15.0 mph 21.9 mph N/A   Clear
2:55 PM 62.6 °F - 42.8 °F 48% 30.04 in 10.0 mi SW 17.3 mph 25.3 mph N/A   Clear
3:15 PM 64.4 °F - 42.8 °F 45% 30.03 in 10.0 mi South 18.4 mph 25.3 mph N/A   Clear
3:35 PM 64.4 °F - 42.8 °F 45% 30.03 in 10.0 mi SSW 16.1 mph 26.5 mph N/A   Clear
3:55 PM 62.6 °F - 42.8 °F 48% 30.03 in 10.0 mi SSW 17.3 mph 29.9 mph N/A   Clear
4:15 PM 62.6 °F - 42.8 °F 48% 30.02 in 10.0 mi SSW 13.8 mph 25.3 mph N/A   Clear
4:35 PM 62.6 °F - 42.8 °F 48% 30.02 in 10.0 mi SSW 13.8 mph 23.0 mph N/A   Clear
4:55 PM 62.6 °F - 42.8 °F 48% 30.02 in 10.0 mi SSW 13.8 mph 23.0 mph N/A   Clear
5:15 PM 60.8 °F - 42.8 °F 52% 30.02 in 10.0 mi South 12.7 mph - N/A   Clear
5:35 PM 59.0 °F - 41.0 °F 51% 30.02 in 10.0 mi South 13.8 mph 25.3 mph N/A   Clear
5:55 PM 57.2 °F - 41.0 °F 55% 30.02 in 10.0 mi South 11.5 mph 18.4 mph N/A   Clear
6:35 PM 57.2 °F - 41.0 °F 55% 30.02 in 10.0 mi South 11.5 mph 16.1 mph N/A   Clear
6:55 PM 57.2 °F - 41.0 °F 55% 30.02 in 10.0 mi South 8.1 mph - N/A   Clear
7:15 PM 55.4 °F - 41.0 °F 58% 30.03 in 10.0 mi South 9.2 mph - N/A   Clear
7:35 PM 55.4 °F - 39.2 °F 54% 30.03 in 10.0 mi South 11.5 mph 18.4 mph N/A   Clear
7:55 PM 55.4 °F - 39.2 °F 54% 30.03 in 10.0 mi South 12.7 mph 19.6 mph N/A   Clear
8:15 PM 55.4 °F - 37.4 °F 51% 30.03 in 10.0 mi South 13.8 mph 21.9 mph N/A   Clear
8:35 PM 55.4 °F - 35.6 °F 47% 30.02 in 10.0 mi South 12.7 mph 19.6 mph N/A   Clear
8:55 PM 55.4 °F - 35.6 °F 47% 30.02 in 10.0 mi South 12.7 mph - N/A   Clear
9:15 PM 55.4 °F - 33.8 °F 44% 30.02 in 10.0 mi South 13.8 mph 19.6 mph N/A   Clear
9:35 PM 55.4 °F - 33.8 °F 44% 30.02 in 10.0 mi South 15.0 mph 23.0 mph N/A   Clear
9:55 PM 55.4 °F - 33.8 °F 44% 30.02 in 10.0 mi South 15.0 mph 20.7 mph N/A   Clear
10:15 PM 55.4 °F - 35.6 °F 47% 30.02 in 10.0 mi South 12.7 mph 20.7 mph N/A   Clear
10:35 PM 55.4 °F - 37.4 °F 51% 30.02 in 10.0 mi SSW 11.5 mph 19.6 mph N/A   Clear
10:55 PM 55.4 °F - 39.2 °F 54% 30.02 in 10.0 mi South 12.7 mph 19.6 mph N/A   Scattered Clouds
11:15 PM 55.4 °F - 39.2 °F 54% 30.02 in 10.0 mi SSW 13.8 mph 19.6 mph N/A   Mostly Cloudy
11:35 PM 55.4 °F - 39.2 °F 54% 30.03 in 10.0 mi SSW 13.8 mph 23.0 mph N/A   Overcast
11:55 PM 57.2 °F - 41.0 °F 55% 30.03 in 10.0 mi SSW 15.0 mph 21.9 mph N/A   Overcast